[[{"header":{"parameterUnit":"m.s-1","parameterCategory":1,"la1":30.2991,"la2":30.254,"lo1":-89.0895,"lo2":-89.0444,"dy":0.0017,"dx":0.0017,"nx":28,"ny":28,"refTime":"2024-08-09T03:00:00:Z","depth":0,"parameterNumber":2,"parameterNumberName":"U-component_of_WINDS"},"data":[0,0,0,0,0,0,0,0,0,0,0,0,0,0,0,0,0,0,0,0,0,0,0,0,0,0,0,0,0,0,0,0,0,0,0,0,0,0,0,0,0,0,0,0,0,0,0,0,0,0,0,0,0,0,0,0,0,0,0.5301,0.5303,0,0.5434,0.5436,0.5437,0.5529,0.553,0.5531,0.5531,0.5672,0.5675,0.5678,0,0,0,0,0,0,0,0,0,0,0,0,0,0.5131,0.5133,0.5301,0.5303,0.5304,0.5434,0.5436,0.5438,0.5529,0.553,0.5531,0.5532,0.5671,0.5675,0.5678,0,0,0,0,0,0,0,0,0,0,0,0,0,0.5228,0.5134,0.5301,0.5366,0.5373,0.5434,0.5436,0.5438,0.5529,0.553,0.5531,0.5532,0.567,0.5674,0.5679,0.5687,0,0,0.5693,0.5695,0,0,0,0,0,0,0,0,0.5223,0.5234,0.5355,0.5361,0.5369,0.5466,0.5427,0.5522,0.5529,0.547,0.5531,0.5533,0.5603,0.5613,0.5636,0.5694,0.57,0.5694,0.5696,0.5698,0.57,0,0,0,0,0,0,0,0.5216,0.5229,0.5354,0.5356,0.5365,0.539,0.5405,0.5446,0.5529,0.5475,0.5482,0.5496,0.5607,0.5631,0.564,0.5702,0.5693,0.5698,0.57,0.5702,0.5774,0.5773,0,0,0,0,0,0,0.5198,0.5223,0.535,0.5358,0.5297,0.5392,0.5409,0.5434,0.5529,0.5544,0.5495,0.55,0.5623,0.5635,0.5645,0.5662,0.5698,0.5703,0.5705,0.5775,0.5774,0.5773,0,0,0,0,0,0,0.5194,0.5209,0.5344,0.5292,0.5312,0.5394,0.5422,0.5436,0.546,0.5544,0.556,0.5504,0.5624,0.5639,0.5676,0.5668,0.5705,0.5709,0.5776,0.5775,0.5773,0.5694,0,0,0,0,0,0,0.5189,0.5207,0.5209,0.5292,0.5314,0.5371,0.5421,0.5438,0.5468,0.5475,0.5557,0.5571,0.5626,0.5668,0.5681,0.5675,0.5713,0.5777,0.5775,0.5774,0.5697,0.569,0.5683,0,0,0,0,0,0.5182,0.5183,0.5209,0.5224,0.5319,0.537,0.5383,0.5445,0.5466,0.5471,0.5525,0.5569,0.5667,0.5671,0.5686,0.5681,0.5778,0.5776,0.5774,0.5701,0.5691,0.5683,0,0,0,0,0,0,0.5099,0.5195,0.5225,0.5251,0.5302,0.5386,0.5393,0.5433,0.548,0.5485,0.5561,0.5579,0.5608,0.5649,0.5653,0.5695,0.5728,0.5728,0.5667,0.5659,0.5652,0.5642,0.5717,0,0,0,0,0,0.5083,0.5115,0.5198,0.5213,0.5237,0.531,0.5335,0.5378,0.5434,0.5456,0.5513,0.5567,0.561,0.5637,0.5681,0.5704,0.5723,0.5708,0.5701,0.5695,0.5694,0.571,0.5704,0.5766,0.5766,0.5766,0,0,0.5051,0.5108,0.5124,0.5198,0.5242,0.5275,0.5328,0.5361,0.5386,0.5462,0.55,0.5543,0.5609,0.5638,0.5655,0.5673,0.5682,0.5692,0.5686,0.569,0.5707,0.5702,0.5696,0.5765,0.5765,0.5765,0,0,0.5011,0.5056,0.5074,0.5117,0.5183,0.5232,0.5236,0.5314,0.5345,0.5384,0.5442,0.5474,0.5547,0.5591,0.5623,0.5599,0.5641,0.5611,0.5574,0.5589,0.5584,0.558,0.5572,0.5568,0.5611,0.561,0.561,0,0.4963,0.5014,0.5079,0.5108,0.5139,0.5208,0.5227,0.5266,0.5344,0.5364,0.5384,0.5476,0.5525,0.5566,0.556,0.5584,0.5592,0.5602,0.5579,0.5576,0.5573,0.5566,0.5563,0.5606,0.5607,0.5607,0.5608,0,0.4953,0.4987,0.4994,0.5066,0.5098,0.5122,0.5191,0.5217,0.5257,0.5304,0.5344,0.5404,0.5462,0.5475,0.5516,0.5523,0.5532,0.5564,0.5599,0.5562,0.5557,0.5555,0.5601,0.5602,0.5603,0.5604,0,0,0.4863,0.497,0.4971,0.5004,0.5082,0.5111,0.5139,0.5194,0.5214,0.5265,0.5291,0.5351,0.5381,0.5417,0.5463,0.5475,0.5453,0.5506,0.5509,0.5494,0.5465,0.544,0.5436,0.5481,0.5481,0.5481,0.546,0,0.4834,0.4886,0.4945,0.4978,0.5011,0.5077,0.5101,0.5152,0.5197,0.5233,0.5283,0.5324,0.536,0.5383,0.5398,0.5452,0.5448,0.5455,0.5507,0.5508,0.5489,0.5434,0.5408,0.5385,0.5458,0.5458,0.5458,0,0.4808,0.4854,0.4889,0.4964,0.498,0.5001,0.5056,0.5089,0.5149,0.5181,0.5221,0.527,0.5304,0.5334,0.5382,0.5385,0.5411,0.5441,0.5441,0.5449,0.5481,0.544,0.5379,0.5375,0.5455,0.5455,0.5455,0,0.4739,0.481,0.4841,0.4867,0.4955,0.4968,0.5006,0.5066,0.5096,0.5145,0.5165,0.5218,0.5247,0.5287,0.535,0.5366,0.5392,0.5427,0.542,0.5418,0.5423,0.5422,0.5365,0.5438,0.5438,0.5438,0.5439,0,0.4701,0.4719,0.4811,0.4829,0.4853,0.4921,0.4943,0.4987,0.504,0.5069,0.513,0.5157,0.5237,0.5274,0.5323,0.5356,0.5369,0.5396,0.5409,0.5391,0.5387,0.5409,0.5412,0.5438,0.5438,0.5438,0.5438,0,0.4627,0.4689,0.4727,0.4807,0.4827,0.4841,0.4911,0.4932,0.498,0.5016,0.5029,0.5105,0.5151,0.5217,0.5284,0.5317,0.5343,0.5363,0.5322,0.533,0.5319,0.5319,0.5275,0.5273,0.5346,0.5345,0.5344,0,0.4599,0.4615,0.4696,0.472,0.4755,0.4792,0.4822,0.489,0.4919,0.4988,0.5002,0.5052,0.5096,0.5167,0.5229,0.528,0.5303,0.5284,0.5311,0.5292,0.5303,0.5301,0.5303,0.5277,0.5276,0.5275,0.5274,0,0.4542,0.4572,0.4612,0.4663,0.4697,0.4741,0.4788,0.4804,0.4883,0.4913,0.496,0.4993,0.5061,0.5111,0.517,0.5211,0.5256,0.5265,0.5266,0.5248,0.5223,0.5237,0.5304,0.5266,0.5267,0.5267,0.5268,0.5268,0.4491,0.4508,0.4568,0.4611,0.4653,0.4696,0.472,0.4771,0.481,0.487,0.4908,0.4953,0.5014,0.5098,0.5137,0.5174,0.5193,0.5194,0.5195,0.5194,0.5188,0.5216,0.5185,0.5185,0.5186,0.5186,0.5186,0,0.4437,0.4479,0.4518,0.4581,0.4615,0.4653,0.4707,0.4734,0.4772,0.4824,0.4866,0.492,0.4968,0.5034,0.5088,0.5105,0.5127,0.5117,0.5116,0.5125,0.5168,0.5161,0.5098,0.5098,0.5098,0.5098,0.5098,0.5098,0.4413,0.4444,0.4481,0.4535,0.4577,0.4621,0.4648,0.4688,0.473,0.4787,0.4827,0.4869,0.4927,0.4986,0.5032,0.5051,0.5068,0.5051,0.5075,0.5114,0.5122,0.513,0.5124,0.5054,0.5054,0.503,0.503,0.5029]},{"header":{"parameterUnit":"m.s-1","parameterCategory":1,"la1":30.2991,"la2":30.254,"lo1":-89.0895,"lo2":-89.0444,"dy":0.0017,"dx":0.0017,"nx":28,"ny":28,"refTime":"2024-08-09T03:00:00:Z","depth":0,"parameterNumber":3,"parameterNumberName":"V-component_of_WINDS"},"data":[0,0,0,0,0,0,0,0,0,0,0,0,0,0,0,0,0,0,0,0,0,0,0,0,0,0,0,0,0,0,0,0,0,0,0,0,0,0,0,0,0,0,0,0,0,0,0,0,0,0,0,0,0,0,0,0,0,0,2.1467,2.1467,0,2.1543,2.1544,2.1544,2.1541,2.154,2.1539,2.1538,2.1612,2.1614,2.1617,0,0,0,0,0,0,0,0,0,0,0,0,0,2.1312,2.1315,2.1467,2.1468,2.1469,2.1543,2.1544,2.1545,2.1541,2.154,2.1539,2.1537,2.1611,2.1614,2.1618,0,0,0,0,0,0,0,0,0,0,0,0,0,2.1382,2.1316,2.1466,2.1476,2.1477,2.1542,2.1544,2.1545,2.1541,2.154,2.1538,2.1537,2.1609,2.1614,2.1618,2.1677,0,0,2.1632,2.1634,0,0,0,0,0,0,0,0,2.1378,2.1388,2.1473,2.1475,2.1477,2.1531,2.1516,2.1589,2.1542,2.1517,2.1538,2.1536,2.1586,2.1592,2.161,2.1681,2.1684,2.1632,2.1635,2.1637,2.1638,0,0,0,0,0,0,0,2.1374,2.1385,2.1497,2.1475,2.1477,2.1474,2.1482,2.153,2.1559,2.1519,2.1519,2.1528,2.1586,2.1605,2.1611,2.1685,2.1632,2.1636,2.1639,2.164,2.1803,2.1805,0,0,0,0,0,0,2.1367,2.1381,2.1494,2.1499,2.1423,2.1478,2.1487,2.1515,2.1559,2.1564,2.153,2.1528,2.1599,2.1606,2.1614,2.1682,2.1637,2.1641,2.1643,2.1802,2.1804,2.1805,0,0,0,0,0,0,2.1364,2.1378,2.1491,2.144,2.1454,2.1483,2.1514,2.1517,2.1536,2.1567,2.1571,2.1544,2.1598,2.1608,2.1661,2.1685,2.1643,2.1647,2.18,2.1802,2.1805,2.1822,0,0,0,0,0,0,2.136,2.1377,2.1401,2.1441,2.1457,2.1539,2.1515,2.152,2.1545,2.1543,2.1581,2.1586,2.1597,2.1654,2.1665,2.169,2.165,2.1798,2.1801,2.1804,2.182,2.1825,2.183,0,0,0,0,0,2.1354,2.1403,2.1402,2.1416,2.1489,2.154,2.1549,2.1562,2.1547,2.157,2.1589,2.1585,2.1681,2.166,2.1672,2.1699,2.1796,2.18,2.1804,2.1817,2.1824,2.183,0,0,0,0,0,0,2.1365,2.1409,2.1408,2.1472,2.1502,2.154,2.157,2.157,2.1604,2.1601,2.1614,2.1623,2.1675,2.1693,2.1668,2.1756,2.1736,2.1743,2.1742,2.1749,2.1754,2.1748,2.1654,0,0,0,0,0,2.1375,2.1416,2.1451,2.1503,2.1519,2.1542,2.1565,2.1572,2.1603,2.1616,2.1639,2.1668,2.1704,2.1728,2.1764,2.1823,2.1829,2.1847,2.1852,2.1856,2.1861,2.1889,2.1896,2.1818,2.1818,2.1818,0,0,2.1396,2.1425,2.1449,2.1506,2.1531,2.1569,2.1552,2.1595,2.1623,2.1622,2.1673,2.169,2.1724,2.1779,2.1804,2.1795,2.1884,2.1861,2.1864,2.1866,2.1893,2.1901,2.1907,2.182,2.182,2.1819,0,0,2.1453,2.1481,2.1525,2.155,2.1587,2.1601,2.1612,2.1649,2.166,2.1712,2.1711,2.1743,2.1807,2.1829,2.1849,2.1911,2.1907,2.1922,2.1948,2.1975,2.1981,2.1987,2.2005,2.2012,2.1927,2.1927,2.1927,0,2.1473,2.1534,2.1548,2.159,2.1613,2.1614,2.1657,2.168,2.1727,2.1742,2.1731,2.1808,2.1831,2.1889,2.1904,2.1922,2.1931,2.1917,2.198,2.1985,2.199,2.2008,2.2015,2.1929,2.1928,2.1928,2.1928,0,2.1555,2.1596,2.1627,2.1672,2.1699,2.1742,2.1759,2.1785,2.1789,2.1803,2.1853,2.1881,2.192,2.1934,2.1939,2.1992,2.1985,2.1977,2.1957,2.1999,2.2015,2.2023,2.193,2.193,2.193,2.1929,0,0,2.1621,2.1671,2.1682,2.1701,2.1741,2.1772,2.1813,2.1852,2.1871,2.1903,2.1935,2.1987,2.1979,2.2001,2.2008,2.2033,2.2075,2.2021,2.2022,2.2027,2.213,2.2134,2.2142,2.2073,2.2075,2.2076,2.2126,0,2.1679,2.1753,2.1765,2.1829,2.1865,2.1865,2.19,2.1927,2.1941,2.1972,2.1987,2.2022,2.2011,2.2024,2.2048,2.2064,2.2095,2.2061,2.21,2.2101,2.2089,2.2151,2.2156,2.2202,2.2133,2.2134,2.2135,0,2.1757,2.179,2.1857,2.1888,2.1904,2.1935,2.197,2.2001,2.2029,2.2038,2.2061,2.2065,2.2104,2.2083,2.2135,2.2112,2.2129,2.2139,2.2141,2.2143,2.2119,2.2152,2.2218,2.2224,2.2146,2.2145,2.2145,0,2.1793,2.1854,2.1901,2.1918,2.1957,2.1978,2.1996,2.2023,2.2045,2.2074,2.2088,2.2122,2.2139,2.2164,2.2175,2.216,2.2225,2.2207,2.223,2.223,2.2242,2.2241,2.2309,2.2258,2.2258,2.2257,2.2257,0,2.1855,2.1895,2.1918,2.1947,2.199,2.2003,2.2045,2.2062,2.2086,2.2115,2.2118,2.2146,2.216,2.2189,2.2198,2.2237,2.2246,2.2251,2.2253,2.225,2.2248,2.2259,2.2255,2.2259,2.2259,2.2259,2.2258,0,2.1902,2.192,2.197,2.2003,2.2012,2.2042,2.2069,2.2095,2.2109,2.2146,2.2155,2.2176,2.221,2.2224,2.2265,2.2271,2.2315,2.2316,2.2305,2.2305,2.2327,2.2323,2.2402,2.2411,2.2356,2.2357,2.2357,0,2.1939,2.1969,2.2005,2.2025,2.2043,2.2076,2.2098,2.2111,2.2133,2.2166,2.2188,2.2222,2.2249,2.2302,2.232,2.235,2.235,2.2375,2.2354,2.2349,2.2346,2.2343,2.2344,2.2378,2.2378,2.2379,2.2379,0,2.2001,2.2007,2.2039,2.2073,2.2098,2.2126,2.2152,2.2168,2.2185,2.2209,2.2243,2.2265,2.2306,2.2339,2.237,2.2385,2.2384,2.2386,2.2392,2.2388,2.238,2.2381,2.2313,2.2384,2.2383,2.2383,2.2383,2.2382,2.2042,2.2067,2.2096,2.213,2.2151,2.2175,2.22,2.2216,2.2246,2.2281,2.2287,2.2323,2.2348,2.239,2.2406,2.2433,2.2426,2.2436,2.2438,2.244,2.244,2.2378,2.2439,2.2439,2.2439,2.2438,2.2438,0,2.21,2.2118,2.215,2.2186,2.2212,2.2211,2.2239,2.226,2.2292,2.2316,2.2343,2.2381,2.2411,2.2431,2.2461,2.2478,2.2478,2.2485,2.2483,2.2486,2.2446,2.2436,2.2485,2.2485,2.2485,2.2485,2.2485,2.2485,2.2134,2.2176,2.2186,2.2238,2.2255,2.2291,2.2307,2.2327,2.2346,2.2389,2.2415,2.2427,2.2448,2.248,2.2507,2.2512,2.2521,2.2528,2.2532,2.2494,2.2489,2.2484,2.2475,2.2531,2.2531,2.2569,2.257,2.257]}]]